User: anonymous   Login
Location: Albany
(35.0000°S, 118.0000°E)
Time: 02:51:50
(UTC-05:00)
Language:

Centaur D-1AR AC-48 - Orbit

View from above orbital plane
View from above orbital plane
View from above satellite
View from above satellite

Ground track
Ground track

The orbit data is extracted from the following two-line orbital elements,

1 10779U 78035B   15028.11762418 -.00000001  00000-0  35837-3 0    96
2 10779 021.9001 011.7280 7174239 195.7870 121.0730 02.22635647299278
Epoch (UTC): 28 January 2015 02:49:22
Eccentricity: 0.7174239
inclination: 21.9001°
perigee height: 622 km
apogee height: 36170 km
right ascension of ascending node: 11.7280°
argument of perigee: 195.7870°
revolutions per day: 2.22635647
mean anomaly at epoch: 121.0730°
orbit number at epoch: 29927

The dashed part of the orbit path shows where the satellite is in the earth's shadow,  

DLR